Regional Weather Roundup
Issued by NWS Newport/Morehead, NC

Current Version | Previous Version | Text Only | Print | Product List | Glossary On
Versions: 1 2 3 4 5 6 7 8 9 10 11 12 13 14 15 16 17 18 19 20 21 22 23 24 25 26 27 28 29 30 31 32 33 34 35 36 37 38 39 40 41 42 43 44 45 46 47 48 49 50
000
ASUS42 KMHX 192010
RWRMHX
WEATHER ROUNDUP FOR EASTERN NORTH CAROLINA
NATIONAL WEATHER SERVICE NEWPORT/MOREHEAD CITY NC
300 PM EST FRI JAN 19 2018

NOTE: "FAIR" INDICATES FEW OR NO CLOUDS BELOW 12,000 FEET
WITH NO SIGNIFICANT WEATHER AND/OR OBSTRUCTIONS TO VISIBILITY

NCZ015>017-031-032-045>047-102-103-192100-
NORTH COAST

CITY           SKY/WX    TMP DP  RH WIND       PRES   REMARKS
EDENTON        FAIR      56  18  22 SW8       30.12F
ELIZABETH CITY FAIR      53  32  44 SW13      30.10F
KITTY HAWK     FAIR      49  19  30 CALM      30.11F
MANTEO         FAIR      48  20  33 W8        30.13F

$$

NCZ045>047-081-094-103-104-192100-
CENTRAL COAST

CITY           SKY/WX    TMP DP  RH WIND       PRES   REMARKS
FRISCO         FAIR      50  33  52 SW7       30.17F

$$

NCZ095-097-098-100-101-192100-
SOUTHERN COAST

CITY           SKY/WX    TMP DP  RH WIND       PRES   REMARKS
BEAUFORT       FAIR      50  32  50 SW12      30.18F
CEDAR ISLAND   NOT AVBL
JACKSONVILLE   FAIR      59  20  22 W9        30.17F
PINEY ISLAND   NOT AVBL
WILMINGTON     FAIR      60  20  21 W9        30.18F


$$

NCZ011>013-027>030-043-044-078>080-089-090>093-098-192100-
COASTAL PLAIN

CITY           SKY/WX    TMP DP  RH WIND       PRES   REMARKS
AHOSKIE        FAIR      53  23  31 CALM      30.11F
CLINTON        FAIR      55  26  32 SW6       30.18F
ELIZABETHTOWN  NOT AVBL
GOLDSBORO      FAIR      57  19  23 W8        30.13F
GREENVILLE     FAIR      55  18  22 SW12      30.15F
HAVELOCK       SUNNY     58  22  24 W12       30.18F
KENANSVILLE    FAIR      57  21  24 W7        30.17F
KINSTON        SUNNY     57  18  21 SW6       30.17F
NEW BERN       FAIR      56  21  25 W9        30.17F
RICHLANDS      FAIR      57  23  26 W9        30.17F
ROCKY MOUNT    NOT AVBL
WASHINGTON     FAIR      57  14  18 SW10      30.15F
WHITEVILLE     FAIR      58  21  23 SW5       30.18F

$$

AMZ130-135-150-152-154-156-158-170-250-252-270-ANZ085-086-088-633-658-670-192100-
MARINE OBSERVATIONS

STATION/POSITION TIME  TEMP    WIND        PRES    WAVE   SWELL
                       AIR SEA DIR/SP/G            HT/PER HT/PER
                 (UTC) (F)     (DEG/KT/KT) (MB)    (FT/S) (FT/S)
CHESAPEAKE LIGHT NOT AVBL
64 E VA BEACH    NOT AVBL
DUCK             NOT AVBL
2 E DUCK         NOT AVBL
OREGON INLET     NOT AVBL
13E OREGON INLT  NOT AVBL
HATTERAS CG      NOT AVBL
DIAMOND BUOY     NOT AVBL
CAPE LOOKOUT     NOT AVBL
BEAUFORT LAB     NOT AVBL
30 SE NEW RVR IN NOT AVBL
30 SE NEW RVR IN NOT AVBL
27 SE WRIGHTSVLE NOT AVBL
5 SE WRIGHTSVLE  NOT AVBL
225 S CAPE HAT   NOT AVBL
41 SE CHARLESTON NOT AVBL

$$



USA.gov is the U.S. government's official web portal to all federal, state and local government web resources and services.